SWR226 LSZH-ESSA

Flight info

Callsign SWR226
Flight time N/A
Altitude 40000
Route DEGES Z1 ETAGO DCT TIKNI/N0478F410 DCT ROBEL DCT KENIG DCT VIBIS/N0474F400 DCT ADUKI/N0481F410 Z400 ARGAD DCT OKAGA DCT VIBAR/N0439F270 Z227 NILUG
Aircraft MD11/H-SDE1E2E3FGHIJ2J3J4J5M1RWXY/LB1D1

Departure

Time 2026-05-04 21:22
Airport Zürich Airport (LSZH)

Arrival

Time N/A
Airport Stockholm-Arlanda Airport (ESSA)
Time Latitude Longitude Altitude Speed Heading
2026-05-04 21:00 47.46070 8.55242 1403 ft 0 kts
2026-05-04 21:10 47.46069 8.55242 1403 ft 2 kts
2026-05-04 21:10 47.46044 8.55238 1405 ft 4 kts
2026-05-04 21:10 47.46017 8.55233 1410 ft 3 kts
2026-05-04 21:11 47.45998 8.55231 1410 ft 4 kts 30°
2026-05-04 21:11 47.45987 8.55216 1412 ft 4 kts 85°
2026-05-04 21:11 47.45988 8.55180 1412 ft 4 kts 96°
2026-05-04 21:11 47.45990 8.55155 1412 ft 0 kts 96°
2026-05-04 21:12 47.45990 8.55154 1411 ft 0 kts 96°
2026-05-04 21:16 47.45989 8.55162 1412 ft 4 kts 96°
2026-05-04 21:17 47.45984 8.55236 1413 ft 8 kts 96°
2026-05-04 21:17 47.45978 8.55323 1412 ft 9 kts 96°
2026-05-04 21:17 47.45970 8.55433 1411 ft 14 kts 96°
2026-05-04 21:17 47.45959 8.55590 1411 ft 15 kts 96°
2026-05-04 21:18 47.45948 8.55734 1415 ft 13 kts 97°
2026-05-04 21:18 47.45940 8.55852 1414 ft 11 kts 95°
2026-05-04 21:18 47.45934 8.55951 1420 ft 9 kts 95°
2026-05-04 21:18 47.45928 8.56033 1419 ft 8 kts 96°
2026-05-04 21:19 47.45923 8.56107 1418 ft 7 kts 96°
2026-05-04 21:19 47.45919 8.56166 1419 ft 5 kts 96°
2026-05-04 21:19 47.45916 8.56205 1418 ft 2 kts 96°
2026-05-04 21:19 47.45914 8.56231 1419 ft 5 kts 95°
2026-05-04 21:20 47.45933 8.56297 1427 ft 7 kts 44°
2026-05-04 21:20 47.45980 8.56318 1422 ft 8 kts
2026-05-04 21:20 47.46044 8.56329 1423 ft 10 kts
2026-05-04 21:20 47.46122 8.56342 1421 ft 12 kts
2026-05-04 21:21 47.46209 8.56332 1420 ft 12 kts 335°
2026-05-04 21:21 47.46238 8.56296 1419 ft 0 kts 317°
2026-05-04 21:21 47.46258 8.56269 1420 ft 28 kts 317°
2026-05-04 21:21 47.46693 8.55677 1410 ft 137 kts 317°
2026-05-04 21:22 47.47538 8.54535 1908 ft 170 kts 316°
2026-05-04 21:22 47.48383 8.53395 3377 ft 155 kts 319°
2026-05-04 21:22 47.49333 8.52613 4587 ft 161 kts 346°
2026-05-04 21:22 47.50440 8.52799 5638 ft 166 kts 28°
2026-05-04 21:23 47.51545 8.53435 6539 ft 177 kts
2026-05-04 21:23 47.52717 8.53025 7498 ft 176 kts 323°
2026-05-04 21:23 47.53447 8.51650 8424 ft 170 kts 282°
2026-05-04 21:23 47.53405 8.49980 9328 ft 163 kts 242°
2026-05-04 21:24 47.52755 8.48634 10186 ft 165 kts 238°
2026-05-04 21:24 47.52622 8.46971 10941 ft 171 kts 285°
2026-05-04 21:24 47.53029 8.45314 11575 ft 176 kts 270°
2026-05-04 21:24 47.52814 8.43613 12338 ft 170 kts 247°
2026-05-04 21:25 47.52373 8.41972 13047 ft 173 kts 245°
2026-05-04 21:25 47.51890 8.40332 13767 ft 175 kts 241°
2026-05-04 21:25 47.51217 8.39246 14212 ft 175 kts 206°